Location: Unnamed
(47.6264°N, 122.3366°W)
Time: 07:10:58
(UTC-07:00)

X-37B - Pass Details

Date: 21 June 2021
Orbit: 383 x 392 km, 45.0° (Epoch: 01 July)

Event Time Altitude Azimuth Distance (km) Brightness Sun altitude
Exits shadow 03:19:25 20° 250° (WSW) 956 2.1 -13.3°
Maximum altitude 03:21:04 35° 196° (SSW) 645 1.2 -13.2°
Drops below altitude 10° 03:23:59 10° 129° (SE) 1,404 3.3 -12.9°
Sets 03:26:09 0° 120° (ESE) 2,258 4.5 -12.7°
